Airfield :
LOGIN :

Register | Disclaimer

   EN    FR    IT 

 










Legend :    VFR   Marginal VFR   IFR   Intensive IFR   Very Intensive IFR
Visi :
Ceiling :
>= 8 km
>= 3000ft
5 to 8 km
1000 to 3000 ft
1500m to 5 km
500 to 1000 ft
800 to 1500m
200 to 500 ft
< 800m
< 200 ft
Symbols :   Thunderstorms  Fog  Heavy snow  Heavy precipitations  Wind > 20 kt
SIGMETs :     Misc.  Thunderstorms  Icing  Turbulence  Mountain Waves  Volcanic Ashes







- Airport Elevation : 76 ft
- IATA code : KID


ESMK - Kristianstad

CURRENT METAR :
  • 232220Z AUTO 14007KT 100V180 9999 SCT071/// BKN100/// 10/03 Q1015

EXPIRED METARs :
  • 232150Z AUTO 14008KT 120V180 9999 SCT070/// BKN097/// 10/03 Q1015
  • 232120Z AUTO 13009KT 100V160 9999 SCT099/// 10/03 Q1016
  • 232050Z AUTO 13011G21KT 090V150 9999 NCD 11/02 Q1016
  • 232020Z AUTO 11012KT 9999 NCD 11/02 Q1016
  • 231950Z AUTO 10014KT 9999 NCD 11/02 Q1016

Expired Forecast.
No reported NOTAMs for that airfield.



MET'MAP, your aeronautical weather chart ! - Copyright ORBIFLY December 2007 - Disclaimer

ORBIFLY MET'MAP TEAM :

Programming & Development : Alexandra Zaïnal
Concept & Development : Baudouin d'Aumeries
Co-Development & Prog : Marc-Olivier Méhu
Technical & hardware support : Manuel Goepfert

Contact : metmap@orbifly.com




SOURCES & CREDITS :

   NOAA